Time,TemperatureF,DewpointF,PressureIn,WindDirection,WindDirectionDegrees,WindSpeedMPH,WindSpeedGustMPH,Humidity,HourlyPrecipIn,Conditions,Clouds,dailyrainin,SoftwareType,DateUTC
2013-10-08 00:04:00,57.0,-99.9,0.00,South,171,17.0,20.0,-999,0.00,,,-99.99,,2013-10-08 05:04:00,
2013-10-08 00:09:00,57.0,-99.9,0.00,SSE,158,16.0,19.0,-999,0.00,,,-99.99,,2013-10-08 05:09:00,
2013-10-08 00:14:00,57.0,-99.9,0.00,South,175,17.0,20.0,-999,0.00,,,-99.99,,2013-10-08 05:14:00,
2013-10-08 00:19:00,57.0,-99.9,0.00,South,182,17.0,19.0,-999,0.00,,,-99.99,,2013-10-08 05:19:00,
2013-10-08 00:24:00,57.0,-99.9,0.00,South,169,17.0,21.0,-999,0.00,,,-99.99,,2013-10-08 05:24:00,
2013-10-08 00:29:00,57.0,-99.9,0.00,South,169,17.0,20.0,-999,0.00,,,-99.99,,2013-10-08 05:29:00,
2013-10-08 00:34:00,56.0,-99.9,0.00,SSE,164,17.0,20.0,-999,0.00,,,-99.99,,2013-10-08 05:34:00,
2013-10-08 00:39:00,56.0,-99.9,0.00,South,169,17.0,20.0,-999,0.00,,,-99.99,,2013-10-08 05:39:00,
2013-10-08 00:44:00,56.0,-99.9,0.00,SSE,154,17.0,21.0,-999,0.00,,,-99.99,,2013-10-08 05:44:00,
2013-10-08 00:49:00,56.0,-99.9,0.00,South,172,17.0,19.0,-999,0.00,,,-99.99,,2013-10-08 05:49:00,
2013-10-08 00:54:00,56.0,-99.9,0.00,SSE,151,17.0,20.0,-999,0.00,,,-99.99,,2013-10-08 05:54:00,
2013-10-08 00:59:00,56.0,-99.9,0.00,SSE,159,17.0,20.0,-999,0.00,,,-99.99,,2013-10-08 05:59:00,
2013-10-08 01:04:00,56.0,-99.9,0.00,South,171,17.0,20.0,-999,0.00,,,-99.99,,2013-10-08 06:04:00,
2013-10-08 01:09:00,56.0,-99.9,0.00,SSE,166,17.0,20.0,-999,0.00,,,-99.99,,2013-10-08 06:09:00,
2013-10-08 01:14:00,56.0,-99.9,0.00,SSE,157,17.0,19.0,-999,0.00,,,-99.99,,2013-10-08 06:14:00,
2013-10-08 01:19:00,56.0,-99.9,0.00,SE,141,18.0,20.0,-999,0.00,,,-99.99,,2013-10-08 06:19:00,
2013-10-08 01:24:00,56.0,-99.9,0.00,South,178,17.0,20.0,-999,0.00,,,-99.99,,2013-10-08 06:24:00,
2013-10-08 01:29:00,56.0,-99.9,0.00,South,172,18.0,20.0,-999,0.00,,,-99.99,,2013-10-08 06:29:00,
2013-10-08 01:34:00,55.0,-99.9,0.00,South,171,18.0,20.0,-999,0.00,,,-99.99,,2013-10-08 06:34:00,
2013-10-08 01:39:00,55.0,-99.9,0.00,South,173,17.0,21.0,-999,0.00,,,-99.99,,2013-10-08 06:39:00,
2013-10-08 01:44:00,55.0,-99.9,0.00,SSE,161,17.0,20.0,-999,0.00,,,-99.99,,2013-10-08 06:44:00,
2013-10-08 01:49:00,55.0,-99.9,0.00,SSE,157,17.0,19.0,-999,0.00,,,-99.99,,2013-10-08 06:49:00,
2013-10-08 01:54:00,55.0,-99.9,0.00,SSE,166,17.0,20.0,-999,0.00,,,-99.99,,2013-10-08 06:54:00,
2013-10-08 01:59:00,55.0,-99.9,0.00,SSE,168,18.0,21.0,-999,0.00,,,-99.99,,2013-10-08 06:59:00,
2013-10-08 02:04:00,55.0,-99.9,0.00,SSE,161,17.0,18.0,-999,0.00,,,-99.99,,2013-10-08 07:04:00,
2013-10-08 02:09:00,54.0,-99.9,0.00,South,176,16.0,19.0,-999,0.00,,,-99.99,,2013-10-08 07:09:00,
2013-10-08 02:14:00,55.0,-99.9,0.00,South,186,16.0,19.0,-999,0.00,,,-99.99,,2013-10-08 07:14:00,
2013-10-08 02:19:00,54.0,-99.9,0.00,South,173,17.0,20.0,-999,0.00,,,-99.99,,2013-10-08 07:19:00,
2013-10-08 02:24:00,55.0,-99.9,0.00,South,171,18.0,20.0,-999,0.00,,,-99.99,,2013-10-08 07:24:00,
2013-10-08 02:29:00,55.0,-99.9,0.00,South,175,17.0,20.0,-999,0.00,,,-99.99,,2013-10-08 07:29:00,
2013-10-08 02:34:00,55.0,-99.9,0.00,South,175,17.0,20.0,-999,0.00,,,-99.99,,2013-10-08 07:34:00,
2013-10-08 02:39:00,55.0,-99.9,0.00,South,175,18.0,20.0,-999,0.00,,,-99.99,,2013-10-08 07:39:00,
2013-10-08 02:44:00,55.0,-99.9,0.00,South,172,17.0,20.0,-999,0.00,,,-99.99,,2013-10-08 07:44:00,
2013-10-08 02:49:00,55.0,-99.9,0.00,South,169,18.0,23.0,-999,0.00,,,-99.99,,2013-10-08 07:49:00,
2013-10-08 02:54:00,55.0,-99.9,0.00,South,169,18.0,22.0,-999,0.00,,,-99.99,,2013-10-08 07:54:00,
2013-10-08 02:59:00,55.0,-99.9,0.00,South,176,18.0,22.0,-999,0.00,,,-99.99,,2013-10-08 07:59:00,
2013-10-08 03:04:00,55.0,-99.9,0.00,SSE,164,18.0,22.0,-999,0.00,,,-99.99,,2013-10-08 08:04:00,
2013-10-08 03:09:00,55.0,-99.9,0.00,South,173,18.0,20.0,-999,0.00,,,-99.99,,2013-10-08 08:09:00,
2013-10-08 03:14:00,55.0,-99.9,0.00,South,169,18.0,21.0,-999,0.00,,,-99.99,,2013-10-08 08:14:00,
2013-10-08 03:19:00,55.0,-99.9,0.00,SSE,165,18.0,21.0,-999,0.00,,,-99.99,,2013-10-08 08:19:00,
2013-10-08 03:24:00,55.0,-99.9,0.00,South,173,17.0,21.0,-999,0.00,,,-99.99,,2013-10-08 08:24:00,
2013-10-08 03:29:00,55.0,-99.9,0.00,SSE,161,18.0,22.0,-999,0.00,,,-99.99,,2013-10-08 08:29:00,
2013-10-08 03:34:00,54.0,-99.9,0.00,South,173,17.0,20.0,-999,0.00,,,-99.99,,2013-10-08 08:34:00,
2013-10-08 03:39:00,54.0,-99.9,0.00,South,173,18.0,20.0,-999,0.00,,,-99.99,,2013-10-08 08:39:00,
2013-10-08 03:44:00,54.0,-99.9,0.00,South,169,19.0,21.0,-999,0.00,,,-99.99,,2013-10-08 08:44:00,
2013-10-08 03:49:00,54.0,-99.9,0.00,South,178,18.0,22.0,-999,0.00,,,-99.99,,2013-10-08 08:49:00,
2013-10-08 03:54:00,54.0,-99.9,0.00,SSE,161,18.0,22.0,-999,0.00,,,-99.99,,2013-10-08 08:54:00,
2013-10-08 03:59:00,54.0,-99.9,0.00,SSE,166,19.0,21.0,-999,0.00,,,-99.99,,2013-10-08 08:59:00,
2013-10-08 04:04:00,53.0,-99.9,0.00,South,172,18.0,21.0,-999,0.00,,,-99.99,,2013-10-08 09:04:00,
2013-10-08 04:09:00,53.0,-99.9,0.00,SSE,148,18.0,21.0,-999,0.00,,,-99.99,,2013-10-08 09:09:00,
2013-10-08 04:14:00,54.0,-99.9,0.00,SSE,165,18.0,21.0,-999,0.00,,,-99.99,,2013-10-08 09:14:00,
2013-10-08 04:19:00,53.0,-99.9,0.00,SSE,162,18.0,21.0,-999,0.00,,,-99.99,,2013-10-08 09:19:00,
2013-10-08 04:24:00,54.0,-99.9,0.00,SSE,162,19.0,23.0,-999,0.00,,,-99.99,,2013-10-08 09:24:00,
2013-10-08 04:29:00,53.0,-99.9,0.00,SSE,155,19.0,21.0,-999,0.00,,,-99.99,,2013-10-08 09:29:00,
2013-10-08 04:34:00,54.0,-99.9,0.00,South,172,20.0,24.0,-999,0.00,,,-99.99,,2013-10-08 09:34:00,
2013-10-08 04:39:00,53.0,-99.9,0.00,SSE,165,19.0,23.0,-999,0.00,,,-99.99,,2013-10-08 09:39:00,
2013-10-08 04:44:00,53.0,-99.9,0.00,South,172,19.0,22.0,-999,0.00,,,-99.99,,2013-10-08 09:44:00,
2013-10-08 04:49:00,53.0,-99.9,0.00,South,178,19.0,22.0,-999,0.00,,,-99.99,,2013-10-08 09:49:00,
2013-10-08 04:54:00,53.0,-99.9,0.00,SSE,158,18.0,21.0,-999,0.00,,,-99.99,,2013-10-08 09:54:00,
2013-10-08 04:59:00,53.0,-99.9,0.00,SSE,149,18.0,21.0,-999,0.00,,,-99.99,,2013-10-08 09:59:00,
2013-10-08 05:04:00,53.0,-99.9,0.00,South,169,19.0,21.0,-999,0.00,,,-99.99,,2013-10-08 10:04:00,
2013-10-08 05:09:00,53.0,-99.9,0.00,South,173,18.0,21.0,-999,0.00,,,-99.99,,2013-10-08 10:09:00,
2013-10-08 05:14:00,53.0,-99.9,0.00,SSE,164,17.0,21.0,-999,0.00,,,-99.99,,2013-10-08 10:14:00,
2013-10-08 05:19:00,52.0,-99.9,0.00,SSE,162,18.0,21.0,-999,0.00,,,-99.99,,2013-10-08 10:19:00,
2013-10-08 05:24:00,52.0,-99.9,0.00,SSE,164,18.0,22.0,-999,0.00,,,-99.99,,2013-10-08 10:24:00,
2013-10-08 05:29:00,52.0,-99.9,0.00,SSE,159,17.0,21.0,-999,0.00,,,-99.99,,2013-10-08 10:29:00,
2013-10-08 05:34:00,52.0,-99.9,0.00,SSE,151,18.0,21.0,-999,0.00,,,-99.99,,2013-10-08 10:34:00,
2013-10-08 05:39:00,52.0,-99.9,0.00,SSE,149,18.0,22.0,-999,0.00,,,-99.99,,2013-10-08 10:39:00,
2013-10-08 05:44:00,52.0,-99.9,0.00,South,173,17.0,20.0,-999,0.00,,,-99.99,,2013-10-08 10:44:00,
2013-10-08 05:49:00,51.0,-99.9,0.00,South,169,18.0,21.0,-999,0.00,,,-99.99,,2013-10-08 10:49:00,
2013-10-08 05:54:00,51.0,-99.9,0.00,SSE,168,17.0,19.0,-999,0.00,,,-99.99,,2013-10-08 10:54:00,
2013-10-08 05:59:00,51.0,-99.9,0.00,South,171,17.0,20.0,-999,0.00,,,-99.99,,2013-10-08 10:59:00,
2013-10-08 06:04:00,51.0,-99.9,0.00,South,176,17.0,19.0,-999,0.00,,,-99.99,,2013-10-08 11:04:00,
2013-10-08 06:09:00,51.0,-99.9,0.00,South,172,17.0,19.0,-999,0.00,,,-99.99,,2013-10-08 11:09:00,
2013-10-08 06:14:00,51.0,-99.9,0.00,South,175,16.0,19.0,-999,0.00,,,-99.99,,2013-10-08 11:14:00,
2013-10-08 06:19:00,50.0,-99.9,0.00,South,169,15.0,18.0,-999,0.00,,,-99.99,,2013-10-08 11:19:00,
2013-10-08 06:24:00,50.0,-99.9,0.00,South,173,16.0,18.0,-999,0.00,,,-99.99,,2013-10-08 11:24:00,
2013-10-08 06:29:00,50.0,-99.9,0.00,South,171,15.0,18.0,-999,0.00,,,-99.99,,2013-10-08 11:29:00,
2013-10-08 06:34:00,50.0,-99.9,0.00,SSE,168,15.0,18.0,-999,0.00,,,-99.99,,2013-10-08 11:34:00,
2013-10-08 06:39:00,50.0,-99.9,0.00,South,172,15.0,19.0,-999,0.00,,,-99.99,,2013-10-08 11:39:00,
2013-10-08 06:44:00,50.0,-99.9,0.00,SSE,165,16.0,20.0,-999,0.00,,,-99.99,,2013-10-08 11:44:00,
2013-10-08 06:49:00,50.0,-99.9,0.00,South,176,16.0,18.0,-999,0.00,,,-99.99,,2013-10-08 11:49:00,
2013-10-08 06:54:00,51.0,-99.9,0.00,South,178,16.0,20.0,-999,0.00,,,-99.99,,2013-10-08 11:54:00,
2013-10-08 06:59:00,51.0,-99.9,0.00,South,169,18.0,20.0,-999,0.00,,,-99.99,,2013-10-08 11:59:00,
2013-10-08 07:04:00,51.0,-99.9,0.00,SSE,165,17.0,19.0,-999,0.00,,,-99.99,,2013-10-08 12:04:00,
2013-10-08 07:09:00,51.0,-99.9,0.00,SSE,159,17.0,20.0,-999,0.00,,,-99.99,,2013-10-08 12:09:00,
2013-10-08 07:14:00,51.0,-99.9,0.00,South,169,18.0,23.0,-999,0.00,,,-99.99,,2013-10-08 12:14:00,
2013-10-08 07:19:00,51.0,-99.9,0.00,South,179,19.0,22.0,-999,0.00,,,-99.99,,2013-10-08 12:19:00,
2013-10-08 07:24:00,51.0,-99.9,0.00,South,169,19.0,21.0,-999,0.00,,,-99.99,,2013-10-08 12:24:00,
2013-10-08 07:29:00,51.0,-99.9,0.00,SSE,162,19.0,22.0,-999,0.00,,,-99.99,,2013-10-08 12:29:00,
2013-10-08 07:34:00,51.0,-99.9,0.00,SSE,165,18.0,21.0,-999,0.00,,,-99.99,,2013-10-08 12:34:00,
2013-10-08 07:39:00,51.0,-99.9,0.00,South,179,18.0,21.0,-999,0.00,,,-99.99,,2013-10-08 12:39:00,
2013-10-08 07:44:00,51.0,-99.9,0.00,South,178,18.0,20.0,-999,0.00,,,-99.99,,2013-10-08 12:44:00,
2013-10-08 07:49:00,50.0,-99.9,0.00,SSE,168,17.0,19.0,-999,0.00,,,-99.99,,2013-10-08 12:49:00,
2013-10-08 07:54:00,51.0,-99.9,0.00,SSE,155,17.0,20.0,-999,0.00,,,-99.99,,2013-10-08 12:54:00,
2013-10-08 07:59:00,50.0,-99.9,0.00,South,175,17.0,20.0,-999,0.00,,,-99.99,,2013-10-08 12:59:00,
2013-10-08 08:04:00,51.0,-99.9,0.00,South,171,17.0,19.0,-999,0.00,,,-99.99,,2013-10-08 13:04:00,
2013-10-08 08:09:00,51.0,-99.9,0.00,South,176,17.0,20.0,-999,0.00,,,-99.99,,2013-10-08 13:09:00,
2013-10-08 08:14:00,51.0,-99.9,0.00,South,175,17.0,21.0,-999,0.00,,,-99.99,,2013-10-08 13:14:00,
2013-10-08 08:19:00,51.0,-99.9,0.00,SSE,159,17.0,20.0,-999,0.00,,,-99.99,,2013-10-08 13:19:00,
2013-10-08 08:24:00,52.0,-99.9,0.00,SSE,147,18.0,23.0,-999,0.00,,,-99.99,,2013-10-08 13:24:00,
2013-10-08 08:29:00,52.0,-99.9,0.00,SSE,168,19.0,22.0,-999,0.00,,,-99.99,,2013-10-08 13:29:00,
2013-10-08 08:34:00,52.0,-99.9,0.00,South,169,18.0,21.0,-999,0.00,,,-99.99,,2013-10-08 13:34:00,
2013-10-08 08:39:00,53.0,-99.9,0.00,South,175,18.0,21.0,-999,0.00,,,-99.99,,2013-10-08 13:39:00,
2013-10-08 08:44:00,53.0,-99.9,0.00,South,179,19.0,22.0,-999,0.00,,,-99.99,,2013-10-08 13:44:00,
2013-10-08 08:49:00,54.0,-99.9,0.00,South,173,19.0,23.0,-999,0.00,,,-99.99,,2013-10-08 13:49:00,
2013-10-08 08:54:00,54.0,-99.9,0.00,SSE,158,21.0,25.0,-999,0.00,,,-99.99,,2013-10-08 13:54:00,
2013-10-08 08:59:00,54.0,-99.9,0.00,South,185,20.0,24.0,-999,0.00,,,-99.99,,2013-10-08 13:59:00,
2013-10-08 09:04:00,55.0,-99.9,0.00,SSE,154,21.0,23.0,-999,0.00,,,-99.99,,2013-10-08 14:04:00,
2013-10-08 09:09:00,55.0,-99.9,0.00,South,180,20.0,26.0,-999,0.00,,,-99.99,,2013-10-08 14:09:00,
2013-10-08 09:14:00,56.0,-99.9,0.00,South,172,20.0,23.0,-999,0.00,,,-99.99,,2013-10-08 14:14:00,
2013-10-08 09:19:00,56.0,-99.9,0.00,SE,135,22.0,28.0,-999,0.00,,,-99.99,,2013-10-08 14:19:00,
2013-10-08 09:24:00,57.0,-99.9,0.00,SSE,161,22.0,26.0,-999,0.00,,,-99.99,,2013-10-08 14:24:00,
2013-10-08 09:29:00,57.0,-99.9,0.00,South,171,21.0,26.0,-999,0.00,,,-99.99,,2013-10-08 14:29:00,
2013-10-08 09:34:00,57.0,-99.9,0.00,South,173,23.0,29.0,-999,0.00,,,-99.99,,2013-10-08 14:34:00,
2013-10-08 09:39:00,58.0,-99.9,0.00,South,172,22.0,25.0,-999,0.00,,,-99.99,,2013-10-08 14:39:00,
2013-10-08 09:44:00,58.0,-99.9,0.00,SSE,165,20.0,25.0,-999,0.00,,,-99.99,,2013-10-08 14:44:00,
2013-10-08 09:49:00,58.0,-99.9,0.00,South,183,20.0,25.0,-999,0.00,,,-99.99,,2013-10-08 14:49:00,
2013-10-08 09:54:00,59.0,-99.9,0.00,SSE,154,21.0,24.0,-999,0.00,,,-99.99,,2013-10-08 14:54:00,
2013-10-08 09:59:00,59.0,-99.9,0.00,SSE,159,22.0,25.0,-999,0.00,,,-99.99,,2013-10-08 14:59:00,
2013-10-08 10:04:00,60.0,-99.9,0.00,South,186,22.0,25.0,-999,0.00,,,-99.99,,2013-10-08 15:04:00,
2013-10-08 10:09:00,60.0,-99.9,0.00,SSE,168,21.0,26.0,-999,0.00,,,-99.99,,2013-10-08 15:09:00,
2013-10-08 10:14:00,61.0,-99.9,0.00,SSE,159,21.0,24.0,-999,0.00,,,-99.99,,2013-10-08 15:14:00,
2013-10-08 10:19:00,61.0,-99.9,0.00,SSE,162,22.0,25.0,-999,0.00,,,-99.99,,2013-10-08 15:19:00,
2013-10-08 10:24:00,62.0,-99.9,0.00,South,183,22.0,25.0,-999,0.00,,,-99.99,,2013-10-08 15:24:00,
2013-10-08 10:29:00,63.0,-99.9,0.00,SSE,151,21.0,26.0,-999,0.00,,,-99.99,,2013-10-08 15:29:00,
2013-10-08 10:34:00,63.0,-99.9,0.00,SSE,159,22.0,26.0,-999,0.00,,,-99.99,,2013-10-08 15:34:00,
2013-10-08 10:39:00,65.0,-99.9,0.00,South,169,20.0,25.0,-999,0.00,,,-99.99,,2013-10-08 15:39:00,
2013-10-08 10:44:00,64.0,-99.9,0.00,South,176,23.0,27.0,-999,0.00,,,-99.99,,2013-10-08 15:44:00,
2013-10-08 10:49:00,64.0,-99.9,0.00,SSE,164,22.0,27.0,-999,0.00,,,-99.99,,2013-10-08 15:49:00,
2013-10-08 10:54:00,65.0,-99.9,0.00,SSE,166,22.0,26.0,-999,0.00,,,-99.99,,2013-10-08 15:54:00,
2013-10-08 10:59:00,65.0,-99.9,0.00,SSW,192,22.0,25.0,-999,0.00,,,-99.99,,2013-10-08 15:59:00,
2013-10-08 11:04:00,65.0,-99.9,0.00,South,180,22.0,26.0,-999,0.00,,,-99.99,,2013-10-08 16:04:00,
2013-10-08 11:09:00,66.0,-99.9,0.00,SSW,192,23.0,28.0,-999,0.00,,,-99.99,,2013-10-08 16:09:00,
2013-10-08 11:14:00,66.0,-99.9,0.00,SSE,162,23.0,27.0,-999,0.00,,,-99.99,,2013-10-08 16:14:00,
2013-10-08 11:19:00,67.0,-99.9,0.00,South,178,22.0,27.0,-999,0.00,,,-99.99,,2013-10-08 16:19:00,
2013-10-08 11:24:00,67.0,-99.9,0.00,South,182,21.0,26.0,-999,0.00,,,-99.99,,2013-10-08 16:24:00,
2013-10-08 11:29:00,68.0,-99.9,0.00,SSE,168,25.0,28.0,-999,0.00,,,-99.99,,2013-10-08 16:29:00,
2013-10-08 11:34:00,70.0,-99.9,0.00,South,175,22.0,26.0,-999,0.00,,,-99.99,,2013-10-08 16:34:00,
2013-10-08 11:39:00,69.0,-99.9,0.00,South,176,22.0,27.0,-999,0.00,,,-99.99,,2013-10-08 16:39:00,
2013-10-08 11:44:00,70.0,-99.9,0.00,South,171,23.0,28.0,-999,0.00,,,-99.99,,2013-10-08 16:44:00,
2013-10-08 11:49:00,70.0,-99.9,0.00,SSE,159,24.0,27.0,-999,0.00,,,-99.99,,2013-10-08 16:49:00,
2013-10-08 11:54:00,71.0,-99.9,0.00,SSE,168,23.0,27.0,-999,0.00,,,-99.99,,2013-10-08 16:54:00,
2013-10-08 11:59:00,72.0,-99.9,0.00,SSE,168,24.0,28.0,-999,0.00,,,-99.99,,2013-10-08 16:59:00,
2013-10-08 12:04:00,71.0,-99.9,0.00,SSE,148,23.0,27.0,-999,0.00,,,-99.99,,2013-10-08 17:04:00,
2013-10-08 12:09:00,72.0,-99.9,0.00,SSE,166,24.0,28.0,-999,0.00,,,-99.99,,2013-10-08 17:09:00,
2013-10-08 12:14:00,72.0,-99.9,0.00,SSE,166,23.0,27.0,-999,0.00,,,-99.99,,2013-10-08 17:14:00,
2013-10-08 12:19:00,73.0,-99.9,0.00,South,175,20.0,28.0,-999,0.00,,,-99.99,,2013-10-08 17:19:00,
2013-10-08 12:24:00,73.0,-99.9,0.00,SSE,165,23.0,26.0,-999,0.00,,,-99.99,,2013-10-08 17:24:00,
2013-10-08 12:29:00,74.0,-99.9,0.00,SSE,164,24.0,29.0,-999,0.00,,,-99.99,,2013-10-08 17:29:00,
2013-10-08 12:34:00,74.0,-99.9,0.00,South,176,26.0,31.0,-999,0.00,,,-99.99,,2013-10-08 17:34:00,
2013-10-08 12:39:00,76.0,-99.9,0.00,SSE,165,26.0,29.0,-999,0.00,,,-99.99,,2013-10-08 17:39:00,
2013-10-08 12:44:00,76.0,-99.9,0.00,SSE,157,26.0,29.0,-999,0.00,,,-99.99,,2013-10-08 17:44:00,
2013-10-08 12:49:00,76.0,-99.9,0.00,SSE,152,25.0,28.0,-999,0.00,,,-99.99,,2013-10-08 17:49:00,
2013-10-08 12:54:00,76.0,-99.9,0.00,South,173,25.0,28.0,-999,0.00,,,-99.99,,2013-10-08 17:54:00,
2013-10-08 12:59:00,75.0,-99.9,0.00,South,172,23.0,28.0,-999,0.00,,,-99.99,,2013-10-08 17:59:00,
2013-10-08 13:04:00,75.0,-99.9,0.00,South,180,24.0,31.0,-999,0.00,,,-99.99,,2013-10-08 18:04:00,
2013-10-08 13:14:00,76.0,-99.9,0.00,SSE,164,25.0,32.0,-999,0.00,,,-99.99,,2013-10-08 18:14:00,
2013-10-08 13:19:00,77.0,-99.9,0.00,SSE,162,25.0,31.0,-999,0.00,,,-99.99,,2013-10-08 18:19:00,
2013-10-08 13:24:00,78.0,-99.9,0.00,SSE,158,24.0,31.0,-999,0.00,,,-99.99,,2013-10-08 18:24:00,
2013-10-08 13:29:00,79.0,-99.9,0.00,SSE,165,25.0,31.0,-999,0.00,,,-99.99,,2013-10-08 18:29:00,
2013-10-08 13:34:00,79.0,-99.9,0.00,SSE,157,25.0,30.0,-999,0.00,,,-99.99,,2013-10-08 18:34:00,
2013-10-08 13:39:00,79.0,-99.9,0.00,South,175,26.0,31.0,-999,0.00,,,-99.99,,2013-10-08 18:39:00,
2013-10-08 13:44:00,79.0,-99.9,0.00,SSE,166,26.0,33.0,-999,0.00,,,-99.99,,2013-10-08 18:44:00,
2013-10-08 13:49:00,78.0,-99.9,0.00,SE,135,24.0,29.0,-999,0.00,,,-99.99,,2013-10-08 18:49:00,
2013-10-08 13:54:00,79.0,-99.9,0.00,SE,142,25.0,32.0,-999,0.00,,,-99.99,,2013-10-08 18:54:00,
2013-10-08 13:59:00,79.0,-99.9,0.00,SSE,155,25.0,32.0,-999,0.00,,,-99.99,,2013-10-08 18:59:00,
2013-10-08 14:04:00,78.0,-99.9,0.00,SSE,164,23.0,28.0,-999,0.00,,,-99.99,,2013-10-08 19:04:00,
2013-10-08 14:09:00,78.0,-99.9,0.00,South,185,25.0,31.0,-999,0.00,,,-99.99,,2013-10-08 19:09:00,
2013-10-08 14:14:00,80.0,-99.9,0.00,SSE,155,23.0,26.0,-999,0.00,,,-99.99,,2013-10-08 19:14:00,
2013-10-08 14:19:00,80.0,-99.9,0.00,SSE,161,25.0,30.0,-999,0.00,,,-99.99,,2013-10-08 19:19:00,
2013-10-08 14:24:00,81.0,-99.9,0.00,SSE,164,26.0,32.0,-999,0.00,,,-99.99,,2013-10-08 19:24:00,
2013-10-08 14:29:00,80.0,-99.9,0.00,SSE,152,26.0,36.0,-999,0.00,,,-99.99,,2013-10-08 19:29:00,
2013-10-08 14:34:00,82.0,-99.9,0.00,SSE,165,24.0,30.0,-999,0.00,,,-99.99,,2013-10-08 19:34:00,
2013-10-08 14:39:00,81.0,-99.9,0.00,SE,138,26.0,31.0,-999,0.00,,,-99.99,,2013-10-08 19:39:00,
2013-10-08 14:44:00,82.0,-99.9,0.00,SSE,151,25.0,30.0,-999,0.00,,,-99.99,,2013-10-08 19:44:00,
2013-10-08 14:49:00,81.0,-99.9,0.00,South,169,26.0,33.0,-999,0.00,,,-99.99,,2013-10-08 19:49:00,
2013-10-08 14:54:00,80.0,-99.9,0.00,SSE,161,25.0,30.0,-999,0.00,,,-99.99,,2013-10-08 19:54:00,
2013-10-08 14:59:00,80.0,-99.9,0.00,SSE,155,24.0,30.0,-999,0.00,,,-99.99,,2013-10-08 19:59:00,
2013-10-08 15:04:00,81.0,-99.9,0.00,SSE,154,24.0,29.0,-999,0.00,,,-99.99,,2013-10-08 20:04:00,
2013-10-08 15:09:00,80.0,-99.9,0.00,SSE,148,25.0,31.0,-999,0.00,,,-99.99,,2013-10-08 20:09:00,
2013-10-08 15:14:00,80.0,-99.9,0.00,SE,134,25.0,31.0,-999,0.00,,,-99.99,,2013-10-08 20:14:00,
2013-10-08 15:19:00,80.0,-99.9,0.00,SSE,154,29.0,33.0,-999,0.00,,,-99.99,,2013-10-08 20:19:00,
2013-10-08 15:24:00,80.0,-99.9,0.00,SSE,158,25.0,30.0,-999,0.00,,,-99.99,,2013-10-08 20:24:00,
2013-10-08 15:29:00,81.0,-99.9,0.00,SE,137,24.0,30.0,-999,0.00,,,-99.99,,2013-10-08 20:29:00,
2013-10-08 15:34:00,80.0,-99.9,0.00,SE,142,27.0,35.0,-999,0.00,,,-99.99,,2013-10-08 20:34:00,
2013-10-08 15:39:00,82.0,-99.9,0.00,ESE,118,25.0,30.0,-999,0.00,,,-99.99,,2013-10-08 20:39:00,
2013-10-08 15:44:00,81.0,-99.9,0.00,SSE,157,24.0,30.0,-999,0.00,,,-99.99,,2013-10-08 20:44:00,
2013-10-08 15:49:00,80.0,-99.9,0.00,SSE,149,24.0,30.0,-999,0.00,,,-99.99,,2013-10-08 20:49:00,
2013-10-08 15:54:00,79.0,-99.9,0.00,SE,135,22.0,27.0,-999,0.00,,,-99.99,,2013-10-08 20:54:00,
2013-10-08 15:59:00,80.0,-99.9,0.00,SE,137,21.0,28.0,-999,0.00,,,-99.99,,2013-10-08 20:59:00,
2013-10-08 16:04:00,80.0,-99.9,0.00,SE,138,24.0,30.0,-999,0.00,,,-99.99,,2013-10-08 21:04:00,
2013-10-08 16:09:00,80.0,-99.9,0.00,SSE,151,23.0,29.0,-999,0.00,,,-99.99,,2013-10-08 21:09:00,
2013-10-08 16:14:00,80.0,-99.9,0.00,SE,137,23.0,28.0,-999,0.00,,,-99.99,,2013-10-08 21:14:00,
2013-10-08 16:19:00,80.0,-99.9,0.00,SE,131,20.0,25.0,-999,0.00,,,-99.99,,2013-10-08 21:19:00,
2013-10-08 16:24:00,80.0,-99.9,0.00,SE,128,22.0,31.0,-999,0.00,,,-99.99,,2013-10-08 21:24:00,
2013-10-08 16:29:00,80.0,-99.9,0.00,SSE,166,22.0,29.0,-999,0.00,,,-99.99,,2013-10-08 21:29:00,
2013-10-08 16:34:00,80.0,-99.9,0.00,SE,140,23.0,28.0,-999,0.00,,,-99.99,,2013-10-08 21:34:00,
2013-10-08 16:39:00,79.0,-99.9,0.00,SSE,149,24.0,31.0,-999,0.00,,,-99.99,,2013-10-08 21:39:00,
2013-10-08 16:44:00,80.0,-99.9,0.00,SSE,158,22.0,28.0,-999,0.00,,,-99.99,,2013-10-08 21:44:00,
2013-10-08 16:49:00,80.0,-99.9,0.00,SSE,149,21.0,26.0,-999,0.00,,,-99.99,,2013-10-08 21:49:00,
2013-10-08 16:54:00,80.0,-99.9,0.00,SE,140,23.0,29.0,-999,0.00,,,-99.99,,2013-10-08 21:54:00,
2013-10-08 16:59:00,80.0,-99.9,0.00,SSE,155,25.0,31.0,-999,0.00,,,-99.99,,2013-10-08 21:59:00,
2013-10-08 17:04:00,80.0,-99.9,0.00,SSE,165,26.0,30.0,-999,0.00,,,-99.99,,2013-10-08 22:04:00,
2013-10-08 17:09:00,80.0,-99.9,0.00,SE,144,24.0,29.0,-999,0.00,,,-99.99,,2013-10-08 22:09:00,
2013-10-08 17:14:00,80.0,-99.9,0.00,SSE,166,25.0,31.0,-999,0.00,,,-99.99,,2013-10-08 22:14:00,
2013-10-08 17:19:00,80.0,-99.9,0.00,SSE,157,25.0,30.0,-999,0.00,,,-99.99,,2013-10-08 22:19:00,
2013-10-08 17:24:00,80.0,-99.9,0.00,SSE,159,24.0,31.0,-999,0.00,,,-99.99,,2013-10-08 22:24:00,
2013-10-08 17:29:00,80.0,-99.9,0.00,SSE,168,26.0,32.0,-999,0.00,,,-99.99,,2013-10-08 22:29:00,
2013-10-08 17:34:00,79.0,-99.9,0.00,SSE,158,24.0,29.0,-999,0.00,,,-99.99,,2013-10-08 22:34:00,
2013-10-08 17:39:00,79.0,-99.9,0.00,SSE,147,19.0,24.0,-999,0.00,,,-99.99,,2013-10-08 22:39:00,
2013-10-08 17:44:00,79.0,-99.9,0.00,SSE,158,21.0,28.0,-999,0.00,,,-99.99,,2013-10-08 22:44:00,
2013-10-08 17:49:00,78.0,-99.9,0.00,SSE,152,20.0,25.0,-999,0.00,,,-99.99,,2013-10-08 22:49:00,
2013-10-08 17:54:00,78.0,-99.9,0.00,SE,133,19.0,23.0,-999,0.00,,,-99.99,,2013-10-08 22:54:00,
2013-10-08 17:59:00,78.0,-99.9,0.00,SSE,151,18.0,21.0,-999,0.00,,,-99.99,,2013-10-08 22:59:00,
2013-10-08 18:04:00,78.0,-99.9,0.00,SSE,155,18.0,21.0,-999,0.00,,,-99.99,,2013-10-08 23:04:00,
2013-10-08 18:09:00,78.0,-99.9,0.00,SE,128,17.0,22.0,-999,0.00,,,-99.99,,2013-10-08 23:09:00,
2013-10-08 18:14:00,78.0,-99.9,0.00,SE,137,18.0,21.0,-999,0.00,,,-99.99,,2013-10-08 23:14:00,
2013-10-08 18:19:00,78.0,-99.9,0.00,SSE,151,17.0,22.0,-999,0.00,,,-99.99,,2013-10-08 23:19:00,
2013-10-08 18:24:00,79.0,-99.9,0.00,SSE,152,24.0,28.0,-999,0.00,,,-99.99,,2013-10-08 23:24:00,
2013-10-08 18:29:00,78.0,-99.9,0.00,South,172,25.0,31.0,-999,0.00,,,-99.99,,2013-10-08 23:29:00,
2013-10-08 18:34:00,78.0,-99.9,0.00,South,172,24.0,32.0,-999,0.00,,,-99.99,,2013-10-08 23:34:00,
2013-10-08 18:39:00,77.0,-99.9,0.00,South,171,22.0,28.0,-999,0.00,,,-99.99,,2013-10-08 23:39:00,
2013-10-08 18:44:00,77.0,-99.9,0.00,SSE,152,22.0,27.0,-999,0.00,,,-99.99,,2013-10-08 23:44:00,
2013-10-08 18:49:00,76.0,-99.9,0.00,SSE,149,22.0,28.0,-999,0.00,,,-99.99,,2013-10-08 23:49:00,
2013-10-08 18:54:00,76.0,-99.9,0.00,SE,144,23.0,27.0,-999,0.00,,,-99.99,,2013-10-08 23:54:00,
2013-10-08 18:59:00,76.0,-99.9,0.00,SE,141,22.0,27.0,-999,0.00,,,-99.99,,2013-10-08 23:59:00,
2013-10-08 19:04:00,75.0,-99.9,0.00,SE,140,21.0,28.0,-999,0.00,,,-99.99,,2013-10-09 00:04:00,
2013-10-08 19:09:00,74.0,-99.9,0.00,SE,138,21.0,28.0,-999,0.00,,,-99.99,,2013-10-09 00:09:00,
2013-10-08 19:14:00,74.0,-99.9,0.00,SSE,157,19.0,23.0,-999,0.00,,,-99.99,,2013-10-09 00:14:00,
2013-10-08 19:19:00,74.0,-99.9,0.00,SSE,148,21.0,25.0,-999,0.00,,,-99.99,,2013-10-09 00:19:00,
2013-10-08 19:24:00,74.0,-99.9,0.00,ESE,120,21.0,28.0,-999,0.00,,,-99.99,,2013-10-09 00:24:00,
2013-10-08 19:29:00,74.0,-99.9,0.00,SSE,162,21.0,28.0,-999,0.00,,,-99.99,,2013-10-09 00:29:00,
2013-10-08 19:34:00,73.0,-99.9,0.00,SSE,157,22.0,27.0,-999,0.00,,,-99.99,,2013-10-09 00:34:00,
2013-10-08 19:39:00,73.0,-99.9,0.00,SSE,148,20.0,24.0,-999,0.00,,,-99.99,,2013-10-09 00:39:00,
2013-10-08 19:44:00,73.0,-99.9,0.00,SE,133,21.0,26.0,-999,0.00,,,-99.99,,2013-10-09 00:44:00,
2013-10-08 19:49:00,72.0,-99.9,0.00,SE,140,21.0,26.0,-999,0.00,,,-99.99,,2013-10-09 00:49:00,
2013-10-08 19:54:00,72.0,-99.9,0.00,SSE,155,20.0,25.0,-999,0.00,,,-99.99,,2013-10-09 00:54:00,
2013-10-08 19:59:00,71.0,-99.9,0.00,SSE,148,21.0,26.0,-999,0.00,,,-99.99,,2013-10-09 00:59:00,
2013-10-08 20:04:00,71.0,-99.9,0.00,SSE,155,19.0,24.0,-999,0.00,,,-99.99,,2013-10-09 01:04:00,
2013-10-08 20:09:00,71.0,-99.9,0.00,SSE,159,20.0,25.0,-999,0.00,,,-99.99,,2013-10-09 01:09:00,
2013-10-08 20:14:00,71.0,-99.9,0.00,SE,137,21.0,26.0,-999,0.00,,,-99.99,,2013-10-09 01:14:00,
2013-10-08 20:19:00,70.0,-99.9,0.00,SSE,148,21.0,26.0,-999,0.00,,,-99.99,,2013-10-09 01:19:00,
2013-10-08 20:24:00,70.0,-99.9,0.00,SSE,161,20.0,24.0,-999,0.00,,,-99.99,,2013-10-09 01:24:00,
2013-10-08 20:29:00,70.0,-99.9,0.00,SSE,157,20.0,25.0,-999,0.00,,,-99.99,,2013-10-09 01:29:00,
2013-10-08 20:34:00,70.0,-99.9,0.00,SE,145,21.0,27.0,-999,0.00,,,-99.99,,2013-10-09 01:34:00,
2013-10-08 20:39:00,70.0,-99.9,0.00,SSE,152,23.0,27.0,-999,0.00,,,-99.99,,2013-10-09 01:39:00,
2013-10-08 20:44:00,69.0,-99.9,0.00,SSE,151,24.0,30.0,-999,0.00,,,-99.99,,2013-10-09 01:44:00,
2013-10-08 20:49:00,69.0,-99.9,0.00,SSE,157,23.0,29.0,-999,0.00,,,-99.99,,2013-10-09 01:49:00,
2013-10-08 20:54:00,69.0,-99.9,0.00,SE,145,23.0,28.0,-999,0.00,,,-99.99,,2013-10-09 01:54:00,
2013-10-08 20:59:00,69.0,-99.9,0.00,SSE,151,24.0,28.0,-999,0.00,,,-99.99,,2013-10-09 01:59:00,
2013-10-08 21:04:00,68.0,-99.9,0.00,SSE,159,21.0,27.0,-999,0.00,,,-99.99,,2013-10-09 02:04:00,
2013-10-08 21:09:00,69.0,-99.9,0.00,SE,135,23.0,28.0,-999,0.00,,,-99.99,,2013-10-09 02:09:00,
2013-10-08 21:14:00,68.0,-99.9,0.00,SSE,152,24.0,30.0,-999,0.00,,,-99.99,,2013-10-09 02:14:00,
2013-10-08 21:19:00,68.0,-99.9,0.00,SE,131,22.0,29.0,-999,0.00,,,-99.99,,2013-10-09 02:19:00,
2013-10-08 21:24:00,68.0,-99.9,0.00,SE,140,23.0,28.0,-999,0.00,,,-99.99,,2013-10-09 02:24:00,
2013-10-08 21:29:00,68.0,-99.9,0.00,SSE,159,24.0,30.0,-999,0.00,,,-99.99,,2013-10-09 02:29:00,
2013-10-08 21:34:00,67.0,-99.9,0.00,ESE,120,22.0,27.0,-999,0.00,,,-99.99,,2013-10-09 02:34:00,
2013-10-08 21:39:00,67.0,-99.9,0.00,SE,137,24.0,29.0,-999,0.00,,,-99.99,,2013-10-09 02:39:00,
2013-10-08 21:44:00,67.0,-99.9,0.00,SSE,158,23.0,30.0,-999,0.00,,,-99.99,,2013-10-09 02:44:00,
2013-10-08 21:49:00,67.0,-99.9,0.00,SE,131,23.0,28.0,-999,0.00,,,-99.99,,2013-10-09 02:49:00,
2013-10-08 21:54:00,67.0,-99.9,0.00,SSE,155,23.0,28.0,-999,0.00,,,-99.99,,2013-10-09 02:54:00,
2013-10-08 21:59:00,66.0,-99.9,0.00,SSE,158,21.0,26.0,-999,0.00,,,-99.99,,2013-10-09 02:59:00,
2013-10-08 22:09:00,66.0,-99.9,0.00,SE,140,21.0,26.0,-999,0.00,,,-99.99,,2013-10-09 03:09:00,
2013-10-08 22:14:00,66.0,-99.9,0.00,SE,137,21.0,27.0,-999,0.00,,,-99.99,,2013-10-09 03:14:00,
2013-10-08 22:19:00,66.0,-99.9,0.00,SSE,149,21.0,29.0,-999,0.00,,,-99.99,,2013-10-09 03:19:00,
2013-10-08 22:24:00,65.0,-99.9,0.00,SSE,149,20.0,25.0,-999,0.00,,,-99.99,,2013-10-09 03:24:00,
2013-10-08 22:29:00,65.0,-99.9,0.00,SSE,149,21.0,28.0,-999,0.00,,,-99.99,,2013-10-09 03:29:00,
2013-10-08 22:34:00,65.0,-99.9,0.00,SE,133,20.0,25.0,-999,0.00,,,-99.99,,2013-10-09 03:34:00,
2013-10-08 22:39:00,65.0,-99.9,0.00,SE,144,22.0,27.0,-999,0.00,,,-99.99,,2013-10-09 03:39:00,
2013-10-08 22:44:00,64.0,-99.9,0.00,SSE,168,22.0,25.0,-999,0.00,,,-99.99,,2013-10-09 03:44:00,
2013-10-08 22:49:00,64.0,-99.9,0.00,SE,134,21.0,25.0,-999,0.00,,,-99.99,,2013-10-09 03:49:00,
2013-10-08 22:54:00,64.0,-99.9,0.00,SE,140,22.0,26.0,-999,0.00,,,-99.99,,2013-10-09 03:54:00,
2013-10-08 22:59:00,64.0,-99.9,0.00,SE,133,20.0,23.0,-999,0.00,,,-99.99,,2013-10-09 03:59:00,
2013-10-08 23:04:00,64.0,-99.9,0.00,SSE,151,20.0,25.0,-999,0.00,,,-99.99,,2013-10-09 04:04:00,
2013-10-08 23:09:00,64.0,-99.9,0.00,SSE,154,19.0,24.0,-999,0.00,,,-99.99,,2013-10-09 04:09:00,
2013-10-08 23:14:00,63.0,-99.9,0.00,SE,134,20.0,24.0,-999,0.00,,,-99.99,,2013-10-09 04:14:00,
2013-10-08 23:19:00,63.0,-99.9,0.00,SSE,157,21.0,27.0,-999,0.00,,,-99.99,,2013-10-09 04:19:00,
2013-10-08 23:24:00,63.0,-99.9,0.00,SSE,157,21.0,26.0,-999,0.00,,,-99.99,,2013-10-09 04:24:00,
2013-10-08 23:29:00,63.0,-99.9,0.00,SE,142,22.0,29.0,-999,0.00,,,-99.99,,2013-10-09 04:29:00,
2013-10-08 23:34:00,63.0,-99.9,0.00,SSE,158,22.0,26.0,-999,0.00,,,-99.99,,2013-10-09 04:34:00,
2013-10-08 23:39:00,63.0,-99.9,0.00,SSE,147,21.0,26.0,-999,0.00,,,-99.99,,2013-10-09 04:39:00,
2013-10-08 23:44:00,63.0,-99.9,0.00,SSE,164,21.0,25.0,-999,0.00,,,-99.99,,2013-10-09 04:44:00,
2013-10-08 23:49:00,63.0,-99.9,0.00,SE,138,21.0,26.0,-999,0.00,,,-99.99,,2013-10-09 04:49:00,
2013-10-08 23:54:00,63.0,-99.9,0.00,SSE,159,22.0,27.0,-999,0.00,,,-99.99,,2013-10-09 04:54:00,
2013-10-08 23:59:00,63.0,-99.9,0.00,SE,144,21.0,27.0,-999,0.00,,,-99.99,,2013-10-09 04:59:00,